Weather History for Crestview, FL

Change the Weather History Date:

Tuesday, December 24, 2013

  Actual Average Record
Temperature  
Mean Temperature 40 °F -  
Max Temperature 52 °F - - ()
Min Temperature 27 °F - - ()
Degree Days  
Heating Degree Days 26    
Moisture  
Dew Point 26 °F    
Average Humidity 62    
Maximum Humidity 85    
Minimum Humidity 32    
Precipitation  
Precipitation 0.00 in - - ()
Sea Level Pressure  
Sea Level Pressure 30.39 in    
Wind  
Wind Speed 11 mph (North)    
Max Wind Speed 17 mph    
Max Gust Speed 24 mph    
Visibility 10 miles    
Events      
T = Trace of Precipitation, MM = Missing Value Source: NWS Daily Summary

Daily Weather History Graph

Daily Weather History Graph

Search for Another Location

Airport:

Trip Planner

Search our weather history database for the weather conditions in past years. The results will help you decide how hot, cold, wet, or windy it might be!

Date:

Astronomy

Dec. 24, 2013 Rise Set
Actual Time 6:40 AM CST 4:50 PM CST
Civil Twilight 6:14 AM CST 5:17 PM CST
Nautical Twilight 5:44 AM CST 5:47 PM CST
Astronomical Twilight 5:14 AM CST 6:17 PM CST
Moon 11:30 PM CST (12/24) 11:00 AM CST (12/24)
Length of Visible Light 11h 03m
Length of Day
10h 10m
Waning Gibbous, 58% of the Moon is Illuminated
Dec 24
Waning Gibbous
Dec 25
Last Quarter
Jan 1
New
Jan 7
First Quarter
Jan 15
Full

Hourly Weather History & Observations

Time (CST) Temp. Windchill Dew Point Humidity Pressure Visibility Wind Dir Wind Speed Gust Speed Precip Events Conditions
12:58 AM 38.8 °F 30.4 °F 28.8 °F 67% 30.36 in 10.0 mi North 15.0 mph 21.9 mph N/A   Clear
1:58 AM 37.4 °F 29.3 °F 29.3 °F 73% 30.37 in 10.0 mi North 12.7 mph - N/A   Clear
2:58 AM 36.1 °F 28.2 °F 29.1 °F 76% 30.38 in 10.0 mi North 11.5 mph - N/A   Clear
3:58 AM 35.1 °F 26.4 °F 28.2 °F 76% 30.38 in 10.0 mi North 12.7 mph - N/A   Clear
4:58 AM 33.8 °F 26.4 °F 28.2 °F 80% 30.38 in 10.0 mi North 9.2 mph - N/A   Clear
5:58 AM 33.1 °F 25.5 °F 27.7 °F 81% 30.41 in 10.0 mi North 9.2 mph - N/A   Clear
6:58 AM 32.4 °F 24.0 °F 27.3 °F 82% 30.44 in 10.0 mi North 10.4 mph - N/A   Clear
7:58 AM 34.7 °F 26.9 °F 27.5 °F 75% 30.45 in 10.0 mi North 10.4 mph - N/A   Clear
8:55 AM 39.4 °F 31.8 °F 26.2 °F 59% 30.46 in 10.0 mi North 12.7 mph - N/A   Partly Cloudy
9:55 AM 43.7 °F 37.3 °F 22.6 °F 43% 30.45 in 10.0 mi North 12.7 mph 19.6 mph N/A   Partly Cloudy
10:55 AM 47.8 °F - 21.7 °F 36% 30.43 in 10.0 mi North 16.1 mph - N/A   Partly Cloudy
11:55 AM 50.5 °F - 23.2 °F 34% 30.40 in 10.0 mi North 11.5 mph - N/A   Partly Cloudy
12:58 PM 52.0 °F - 24.3 °F 34% 30.37 in 10.0 mi North 13.8 mph 24.2 mph N/A   Clear
1:58 PM 52.3 °F - 23.0 °F 32% 30.36 in 10.0 mi North 12.7 mph - N/A   Clear
2:58 PM 52.7 °F - 23.2 °F 32% 30.35 in 10.0 mi North 17.3 mph 20.7 mph N/A   Clear
3:58 PM 51.1 °F - 22.6 °F 33% 30.36 in 10.0 mi North 12.7 mph 17.3 mph N/A   Clear
4:58 PM 45.7 °F 42.0 °F 24.8 °F 44% 30.36 in 10.0 mi North 6.9 mph - N/A   Clear
5:58 PM 41.2 °F 36.0 °F 25.9 °F 55% 30.37 in 10.0 mi North 8.1 mph - N/A   Clear
6:58 PM 37.4 °F 32.8 °F 26.1 °F 64% 30.38 in 10.0 mi North 5.8 mph - N/A   Clear
7:58 PM 34.2 °F - 26.2 °F 73% 30.40 in 10.0 mi Calm Calm - N/A   Clear
8:58 PM 30.2 °F 26.7 °F 25.5 °F 83% 30.40 in 10.0 mi North 3.5 mph - N/A   Clear
9:58 PM 28.6 °F 23.5 °F 24.6 °F 85% 30.40 in 10.0 mi NNW 4.6 mph - N/A   Clear
10:58 PM 27.7 °F 22.4 °F 23.7 °F 85% 30.40 in 10.0 mi North 4.6 mph - N/A   Clear
11:58 PM 28.2 °F 22.0 °F 23.7 °F 83% 30.40 in 10.0 mi North 5.8 mph - N/A   Clear